Location: Hale Hill Observatory
(39.3806°N, 86.8431°W)
Time: 11:24:17
(UTC-05:00)

Hubble Space Telescope - Visible Passes

Search period start: 02 December 2020 00:00
Search period end: 12 December 2020 00:00
Orbit: 536 x 540 km, 28.5° (Epoch: 01 December)

Date Brightness Start Highest point End Pass type
(mag) Time Alt. Az. Time Alt. Az. Time Alt. Az.
02 Dec 3.1 19:36:30 10° SSW 19:38:13 15° S 19:38:13 15° S visible
03 Dec 2.9 19:25:24 10° SSW 19:27:59 16° S 19:28:04 16° S visible
04 Dec 2.8 19:14:22 10° SW 19:17:05 17° S 19:17:55 16° SSE visible
05 Dec 2.9 19:03:24 10° SW 19:06:11 18° S 19:07:47 14° SSE visible
06 Dec 3.0 18:52:28 10° SW 18:55:17 18° S 18:57:41 12° SE visible
07 Dec 3.0 18:41:35 10° SW 18:44:22 18° S 18:47:10 10° SE visible
08 Dec 3.1 18:30:44 10° SW 18:33:28 17° S 18:36:12 10° SE visible
09 Dec 3.3 18:19:57 10° SW 18:22:34 16° S 18:25:10 10° SSE visible
10 Dec 3.4 18:09:13 10° SW 18:11:38 15° S 18:14:03 10° SSE visible
11 Dec 3.5 17:58:35 10° SW 18:00:43 14° SSW 18:02:51 10° SSE visible
